User: anonymous   Login
Location: Cornospital
(48.0620°N, 3.3837°W)
Time: 11:57:40
(UTC+00:00)
Language:

Meteor 1-24 Rocket - Orbit

View from above orbital plane
View from above orbital plane
View from above satellite
View from above satellite

Ground track
Ground track

The orbit data is extracted from the following two-line orbital elements,

1  8800U 76032B   21266.08900443 -.00000021  00000-0 -18623-4 0  9998
2  8800  81.2505 140.6934 0095364  91.2131 269.9967 14.10169315337888
Epoch (UTC): 23 September 2021 02:08:09
Eccentricity: 0.0095364
inclination: 81.2505°
perigee height: 790 km
apogee height: 928 km
right ascension of ascending node: 140.6934°
argument of perigee: 91.2131°
revolutions per day: 14.10169315
mean anomaly at epoch: 269.9967°
orbit number at epoch: 33788

The dashed part of the orbit path shows where the satellite is in the earth's shadow,  

DLR